Regional Weather Roundup
Issued by NWS

Home | Current Version | Previous Version | Graphics & Text | Print | Product List | Glossary On
Versions: 1 2 3 4 5 6 7 8 9 10 11 12 13 14 15 16 17 18 19 20 21 22 23 24 25 26 27
000
ASUS45 KPSR 271210
RWRAZ

ARIZONA HOURLY REGIONAL WEATHER ROUNDUP
NATIONAL WEATHER SERVICE PHOENIX AZ
500 AM MST THU APR 27 2017

NOTE: FAIR INDICATES FEW OR NO CLOUDS BELOW 12,000 FEET WITH NO
SIGNIFICANT WEATHER AND/OR OBSTRUCTIONS TO VISIBILITY.

AZZ001>003-036-271300-
NORTHWEST ARIZONA

CITY           SKY/WX    TMP DP  RH WIND       PRES   REMARKS
BULLHEAD CITY  MOCLDY    70  45  40 NW5       29.64R
KINGMAN        MOCLDY    60  39  45 SW5       29.74R
6HR MIN TEMP:  58; 6HR MAX TEMP:  70;

$$

AZZ004>008-015-016-018-271300-
NORTH CENTRAL ARIZONA

CITY           SKY/WX    TMP DP  RH WIND       PRES   REMARKS
GRAND CANYON   PTCLDY    45  31  58 W7        29.82F
6HR MIN TEMP:  43; 6HR MAX TEMP:  49;

WILLIAMS       PTCLDY    48  32  53 SW10G21   29.84S
PRESCOTT       PTCLDY    57  33  40 S10       29.79F
6HR MIN TEMP:  57; 6HR MAX TEMP:  61;

FLAGSTAFF      PTCLDY    48  30  49 SW18G30   29.81S
6HR MIN TEMP:  48; 6HR MAX TEMP:  50;

PAYSON         PTCLDY    55  28  35 SW6       29.84F
PAGE           MOCLDY    57  38  48 NW8       29.70R
6HR MIN TEMP:  56; 6HR MAX TEMP:  65;

$$

AZZ009>014-017-271300-
NORTHEAST ARIZONA

CITY           SKY/WX    TMP DP  RH WIND       PRES   REMARKS
WINSLOW        MOCLDY    58  28  32 SW18      29.75S
6HR MIN TEMP:  55; 6HR MAX TEMP:  61;

SAINT JOHNS    PTCLDY    55  24  30 SW22G32   29.76F
6HR MIN TEMP:  54; 6HR MAX TEMP:  57;

WINDOW ROCK    CLOUDY    49  24  37 SW14      29.77S
6HR MIN TEMP:  49; 6HR MAX TEMP:  55; 6HR PCP: TRACE;

SHOW LOW       PTCLDY    48  23  37 S15       29.83F
$$

AZZ540-542>544-546-548-271300-
GREATER PHOENIX AREA

CITY           SKY/WX    TMP DP  RH WIND       PRES   REMARKS
PHOENIX        PTCLDY    71  35  26 E6        29.65F
6HR MIN TEMP:  70; 6HR MAX TEMP:  79;

BUCKEYE        PTCLDY    63  25  23 CALM      29.66F
LUKE AFB       PTCLDY    73  24  16 CALM      29.65
DEER VALLEY    PTCLDY    64  30  27 CALM      29.67F
6HR MIN TEMP:  64; 6HR MAX TEMP:  76;

SCOTTSDALE     PTCLDY    68  29  23 CALM      29.69F
6HR MIN TEMP:  67; 6HR MAX TEMP:  78;

MESA-GATEWAY   CLEAR     64  36  34 E8        29.70S
$$

AZZ539-553-271300-
SOUTHWEST MARICOPA COUNTY AND PINAL COUNTY

CITY           SKY/WX    TMP DP  RH WIND       PRES   REMARKS
CASA GRANDE    PTCLDY    66  23  19 CALM      29.69F
6HR MIN TEMP:  66; 6HR MAX TEMP:  73;

GILA BEND      FAIR      66  22  18 CALM      29.65
6HR MIN TEMP:  66; 6HR MAX TEMP:  79;

$$

AZZ503-504-507>509-271300-
SOUTHEAST ARIZONA

CITY           SKY/WX    TMP DP  RH WIND       PRES   REMARKS
TUCSON         PTCLDY    67  38  34 S9        29.78F
6HR MIN TEMP:  65; 6HR MAX TEMP:  73;

DAVIS-MONTHAN  CLEAR     65  38  35 S9        29.77F
6HR MIN TEMP:  61; 6HR MAX TEMP:  73;

NOGALES        CLEAR     56  35  45 CALM      29.85F
6HR MIN TEMP:  54; 6HR MAX TEMP:  65;

SIERRA VISTA   PTCLDY    55  31  39 W5        29.87
6HR MIN TEMP:  55; 6HR MAX TEMP:  67;

DOUGLAS        PTCLDY    61  29  29 SW15      29.85F
6HR MIN TEMP:  52; 6HR MAX TEMP:  65;

SAFFORD        PTCLDY    66  25  21 NW12      29.73F
6HR MIN TEMP:  55; 6HR MAX TEMP:  68;

$$

AZZ532-271300-
SOUTHWEST ARIZONA

CITY           SKY/WX    TMP DP  RH WIND       PRES   REMARKS
YUMA           CLEAR     66  42  41 S3        29.62F
6HR MIN TEMP:  66; 6HR MAX TEMP:  75;

$$

CAZ041-043-047-048-061-525>527-560>570-271300-
SOUTHERN CALIFORNIA

CITY           SKY/WX    TMP DP  RH WIND       PRES   REMARKS
DOWNTOWN L.A.  MOCLDY    62  57  83 CALM      29.80S
6HR MIN TEMP:  61; 6HR MAX TEMP:  65;

L.A. AIRPORT   PTCLDY    58  55  90 SE5       29.80F
6HR MIN TEMP:  56; 6HR MAX TEMP:  59;

SAN DIEGO      MOCLDY    62  58  86 SW6       29.83F
6HR MIN TEMP:  62; 6HR MAX TEMP:  64;

BURBANK        CLEAR     60  54  80 SE8       29.79F
6HR MIN TEMP:  58; 6HR MAX TEMP:  75;

ONTARIO        MOCLDY    56  52  86 W5        29.81F
6HR MIN TEMP:  56; 6HR MAX TEMP:  63;

RIVERSIDE      PTCLDY    56  54  93 CALM      29.81F
6HR MIN TEMP:  56; 6HR MAX TEMP:  65;

PALM SPRINGS   PTCLDY    70  50  49 N7        29.65S
6HR MIN TEMP:  69; 6HR MAX TEMP:  80;

EL CENTRO NAS  CLEAR     73  42  32 W13       29.64R
6HR MIN TEMP:  73; 6HR MAX TEMP:  80; 6HR PCP: TRACE;

IMPERIAL       CLEAR     69  47  45 W10       29.61S
6HR MIN TEMP:  69; 6HR MAX TEMP:  78;

BLYTHE         PTCLDY    65  46  50 CALM      29.62S
6HR MIN TEMP:  65; 6HR MAX TEMP:  80;

NEEDLES        PTCLDY    72  43  35 CALM      29.64R
6HR MIN TEMP:  71; 6HR MAX TEMP:  82;

$$

NVZ020-UTZ003-271300-
SOUTHERN NEVADA-UTAH

CITY           SKY/WX    TMP DP  RH WIND       PRES   REMARKS
LAS VEGAS      MOCLDY    71  25  17 NW10G23   29.69R
6HR MIN TEMP:  69; 6HR MAX TEMP:  76;

SALT LAKE CITY MOCLDY    43  31  62 NW18      29.80R
6HR MIN TEMP:  43; 6HR MAX TEMP:  47; 6HR PCP:  0.16;

$$

NMZ009-TXZ055-271300-
NEW MEXICO-WEST TEXAS

CITY           SKY/WX    TMP DP  RH WIND       PRES   REMARKS
ALBUQUERQUE    CLOUDY    54  27  35 CALM      29.73S
6HR MIN TEMP:  50; 6HR MAX TEMP:  58;

EL PASO        MOCLDY    63  21  20 S12       29.76F
6HR MIN TEMP:  62; 6HR MAX TEMP:  74;

$$


........................KEY........................
SKY/WX - SKY CONDITION/WEATHER
TMP    - TEMPERATURE IN FAHRENHEIT
DP     - DEW POINT IN FAHRENHEIT
RH     - RELATIVE HUMIDITY IN PERCENT
WIND   - DIRECTION AND SPEED IN MILES PER HOUR (MPH)
VRB    - VARIABLE WIND DIRECTION
PRES   - MEAN SEA LEVEL PRESSURE IN INCHES OF MERCURY
         F - FALLING PRESSURE   R - RISING PRESSURE
         S - STEADY PRESSURE
VSB    - VISIBILITY IN MILES
HX     - HEAT INDEX IN FAHRENHEIT
WCI    - WIND CHILL INDEX IN FAHRENHEIT
TC     - TEMPERATURE IN CELSIUS WHICH IS ALSO KNOWN AS
         TEMPERATURE IN CENTIGRADE
AFB    - AIR FORCE BASE
         LUKE AFB IS LUKE AIR FORCE BASE
         DAVIS-MONTHAN IS DAVIS-MONTHAN AIR FORCE BASE
NAS    - NAVAL AIR STATION
         EL CENTRO NAS IS EL CENTRO NAVAL AIR STATION
N/A    - NOT AVAILABLE





USA.gov is the U.S. government's official web portal to all federal, state and local government web resources and services.